VR2R-13 Weather Reports


Display with metric or nautical units.
time (UTC)temp
F
wind
direction
speed
MPH
gust
MPH
rain 1hr
in
rain 24hr
in
rain mn
in
humidity
%
barometer
mb
20260505092342 63 71 0.0 3.0 0.00 0.00 0.00 98 913.3
20260505092241 63 71 2.0 3.0 0.00 0.00 0.00 97 913.3
20260505091745 63 56 0.0 0.0 0.00 0.00 0.00 97 913.2
20260505091240 63 69 0.0 3.0 0.00 0.00 0.00 97 913.2
20260505091142 63 57 1.0 4.0 0.00 0.00 0.00 97 913.3
20260505090740 63 38 0.0 2.0 0.00 0.00 0.00 97 913.3
20260505090542 64 64 2.0 3.0 0.00 0.00 0.00 97 913.3
20260505090240 64 48 3.0 3.0 0.00 0.00 0.00 97 913.2
20260505085943 63 46 0.0 0.0 0.00 0.00 0.00 97 913.2
20260505085740 64 49 3.0 4.0 0.00 0.00 0.00 97 913.2
20260505085342 63 49 2.0 3.0 0.00 0.00 0.00 97 913.2
20260505085240 63 45 1.0 3.0 0.00 0.00 0.00 97 913.3
20260505084742 64 45 2.0 3.0 0.00 0.00 0.00 97 913.3
20260505084740 64 51 2.0 3.0 0.00 0.00 0.00 97 913.3
20260505084241 64 63 2.0 4.0 0.00 0.00 0.00 97 913.3
20260505084141 64 105 2.0 4.0 0.00 0.00 0.00 97 913.4
20260505083740 64 90 2.0 4.0 0.00 0.00 0.00 97 913.4
20260505083542 65 138 0.0 2.0 0.00 0.00 0.00 98 913.4
20260505083240 64 175 0.0 1.0 0.00 0.00 0.00 97 913.4
20260505082943 65 114 0.0 1.0 0.00 0.00 0.00 97 913.4
20260505082740 65 148 0.0 2.0 0.00 0.00 0.00 97 913.4
20260505082341 65 167 0.0 0.0 0.00 0.00 0.00 97 913.3
20260505082240 65 97 0.0 1.0 0.00 0.00 0.00 97 913.3
20260505081742 65 66 1.0 2.0 0.00 0.00 0.00 98 913.3
20260505081740 65 66 1.0 2.0 0.00 0.00 0.00 98 913.3
20260505081240 64 55 2.0 3.0 0.00 0.00 0.00 97 913.3
20260505081141 64 61 1.0 3.0 0.00 0.00 0.00 97 913.4
20260505080740 65 73 1.0 2.0 0.00 0.00 0.00 97 913.4
20260505080541 66 80 0.0 1.0 0.00 0.00 0.00 98 913.4
20260505080240 66 89 0.0 0.0 0.00 0.00 0.00 98 913.4
20260505075941 66 113 0.0 0.0 0.00 0.00 0.00 98 913.4
20260505075740 65 226 0.0 0.0 0.00 0.00 0.00 98 913.4
20260505075341 66 204 1.0 3.0 0.00 0.00 0.00 98 913.4
20260505075240 66 187 0.0 3.0 0.00 0.00 0.00 98 913.4
20260505074742 65 228 0.0 0.0 0.00 0.00 0.00 98 913.4
20260505074740 65 227 0.0 0.0 0.00 0.00 0.00 98 913.4
20260505074240 65 165 0.0 1.0 0.00 0.00 0.00 98 913.5
20260505073740 65 115 0.0 1.0 0.00 0.00 0.00 97 913.5
20260505073541 65 129 0.0 2.0 0.00 0.00 0.00 98 913.5
20260505073240 65 200 0.0 3.0 0.00 0.00 0.00 97 913.6
20260505072740 65 209 0.0 0.0 0.00 0.00 0.00 97 913.8
20260505072240 65 91 0.0 2.0 0.00 0.00 0.00 97 913.8
20260505071741 65 116 0.0 2.0 0.00 0.00 0.00 97 913.8
20260505071240 65 262 0.0 2.0 0.00 0.00 0.00 97 913.9
20260505070541 66 258 1.0 5.0 0.00 0.00 0.00 97 913.8
20260505070239 66 209 1.0 4.0 0.00 0.00 0.00 98 913.8
20260505065941 65 205 0.0 1.0 0.00 0.00 0.00 97 913.8
20260505065740 66 200 3.0 5.0 0.00 0.00 0.00 97 913.8
20260505065341 66 170 1.0 4.0 0.00 0.00 0.00 97 913.9
20260505065239 66 232 2.0 4.0 0.00 0.00 0.00 97 913.9
20260505064741 65 197 3.0 5.0 0.00 0.00 0.00 97 913.9
20260505064739 65 202 3.0 5.0 0.00 0.00 0.00 97 913.9
20260505064240 65 208 0.0 0.0 0.00 0.00 0.00 98 914.0
20260505063739 65 252 0.0 3.0 0.00 0.00 0.00 97 914.1
20260505063541 65 234 0.0 3.0 0.00 0.00 0.00 97 914.1
20260505063239 66 252 0.0 5.0 0.00 0.00 0.00 97 914.2
20260505062941 67 292 0.0 5.0 0.00 0.00 0.00 98 914.2
20260505062739 67 198 1.0 5.0 0.00 0.00 0.00 98 914.2
20260505062340 66 157 0.0 4.0 0.00 0.00 0.00 98 914.3
20260505062240 66 198 0.0 4.0 0.00 0.00 0.00 98 914.3
20260505061741 65 162 0.0 2.0 0.00 0.00 0.00 98 914.3
20260505061240 65 263 0.0 1.0 0.00 0.00 0.00 97 914.3
20260505061140 65 238 0.0 1.0 0.00 0.00 0.00 97 914.4
20260505060739 65 270 0.0 3.0 0.00 0.00 0.00 97 914.4
20260505060540 66 293 0.0 5.0 0.00 0.00 0.00 98 914.3
20260505060239 65 307 1.0 5.0 0.00 0.00 0.00 98 914.3
20260505055940 65 232 2.0 5.0 0.00 0.00 0.00 98 914.3
20260505055739 65 261 2.0 4.0 0.00 0.00 0.00 98 914.4
20260505055340 65 262 3.0 5.0 0.00 0.00 0.00 98 914.4
20260505055239 65 255 2.0 5.0 0.00 0.00 0.00 98 914.4
20260505054741 65 252 2.0 6.0 0.00 0.00 0.00 98 914.4
20260505054739 65 249 2.0 6.0 0.00 0.00 0.00 98 914.4
20260505054239 65 275 2.0 5.0 0.00 0.00 0.00 98 914.5
20260505054140 65 258 2.0 5.0 0.00 0.00 0.00 98 914.5
20260505053739 65 268 2.0 4.0 0.00 0.00 0.00 98 914.6
20260505053540 65 194 2.0 4.0 0.00 0.00 0.00 98 914.7
20260505053239 64 252 2.0 5.0 0.00 0.00 0.00 98 914.7
20260505052940 65 267 3.0 5.0 0.00 0.00 0.00 98 914.7
20260505052739 64 256 2.0 4.0 0.00 0.00 0.00 98 914.7
20260505052340 65 256 1.0 4.0 0.00 0.00 0.00 98 914.8
20260505051740 64 256 3.0 6.0 0.00 0.00 0.00 98 914.9
20260505051239 65 235 3.0 6.0 0.00 0.00 0.00 98 914.9
20260505051140 65 245 2.0 6.0 0.00 0.00 0.00 98 915.0
20260505050540 65 242 3.0 6.0 0.00 0.00 0.00 98 915.1
20260505050239 65 259 2.0 4.0 0.00 0.00 0.00 98 915.0
20260505041740 64 270 4.0 8.0 0.00 0.00 0.00 97 915.4
20260505041738 64 269 4.0 8.0 0.00 0.00 0.00 97 915.4
20260505041238 64 255 3.0 8.0 0.00 0.00 0.00 98 915.5
20260505041139 63 245 4.0 8.0 0.00 0.00 0.00 98 915.6
20260505040738 64 229 3.0 6.0 0.00 0.00 0.00 98 915.7
20260505040539 64 245 4.0 6.0 0.00 0.00 0.00 97 915.7
20260505040238 64 280 3.0 5.0 0.00 0.00 0.00 97 915.7
20260505035939 64 238 2.0 5.0 0.00 0.00 0.00 98 915.7
20260505035738 64 221 2.0 5.0 0.00 0.00 0.00 98 915.7
20260505035339 64 232 3.0 5.0 0.00 0.00 0.00 98 915.8
20260505035238 64 274 2.0 4.0 0.00 0.00 0.00 98 915.8
20260505034740 64 258 3.0 5.0 0.00 0.00 0.00 98 915.8
20260505034738 64 256 3.0 5.0 0.00 0.00 0.00 98 915.8
20260505034238 64 247 2.0 4.0 0.00 0.00 0.00 98 915.8
20260505034139 64 253 0.0 2.0 0.00 0.00 0.00 98 915.8
20260505033738 64 234 1.0 4.0 0.00 0.00 0.00 98 915.8
20260505033539 63 251 3.0 5.0 0.00 0.00 0.00 98 915.9
20260505033238 64 255 3.0 6.0 0.01 0.01 0.00 98 915.9
20260505032939 64 254 4.0 6.0 0.00 0.00 0.00 98 915.9
20260505032738 64 215 5.0 7.0 0.00 0.00 0.00 98 915.9
20260505032339 63 206 4.0 6.0 0.00 0.00 0.00 98 915.9
20260505032238 64 227 2.0 6.0 0.00 0.00 0.00 98 916.0
20260505031740 63 217 3.0 5.0 0.01 0.01 0.00 98 916.1
20260505031738 63 214 3.0 5.0 0.01 0.01 0.00 98 916.0
20260505031238 63 185 3.0 5.0 0.00 0.00 0.00 98 916.1
20260505031139 63 169 1.0 5.0 0.00 0.00 0.00 98 916.1
20260505030737 62 156 0.0 2.0 0.00 0.00 0.00 98 916.0
20260505030539 62 120 2.0 3.0 0.00 0.00 0.00 98 916.0
20260505030238 61 110 4.0 8.0 0.01 0.01 0.00 98 916.1
20260505025939 61 121 4.0 6.0 0.00 0.00 0.00 97 916.1
20260505025738 60 103 1.0 6.0 0.00 0.00 0.00 97 916.1
20260505025339 60 55 3.0 7.0 0.01 0.01 0.00 97 916.1
20260505025238 60 64 3.0 7.0 0.01 0.01 0.00 97 916.1
20260505024739 61 96 4.0 7.0 0.00 0.00 0.00 97 916.1
20260505024238 61 110 1.0 5.0 0.00 0.00 0.00 97 916.1
20260505024139 60 116 0.0 1.0 0.00 0.00 0.00 98 916.1
20260505023737 60 3 0.0 2.0 0.00 0.00 0.00 97 916.1
20260505023539 60 63 0.0 4.0 0.00 0.00 0.00 97 916.2
20260505023237 60 52 3.0 5.0 0.00 0.00 0.00 97 916.2
20260505022939 60 71 2.0 5.0 0.00 0.00 0.00 97 916.1
20260505022737 60 52 3.0 7.0 0.00 0.00 0.00 97 916.1
20260505022339 60 42 4.0 7.0 0.00 0.00 0.00 97 916.1
20260505022237 59 51 4.0 7.0 0.00 0.00 0.00 97 916.1
20260505021737 59 32 4.0 7.0 0.00 0.00 0.00 97 916.1
20260505021237 60 56 5.0 8.0 0.00 0.00 0.00 97 916.0
20260505021138 59 62 5.0 8.0 0.00 0.00 0.00 97 916.1
20260505020738 60 74 6.0 9.0 0.00 0.00 0.00 97 916.0
20260505020538 60 56 4.0 9.0 0.00 0.00 0.00 97 916.0
20260505020237 60 84 7.0 9.0 0.00 0.00 0.00 98 916.0
20260505015938 59 85 2.0 8.0 0.00 0.00 0.00 97 916.0
20260505015338 59 19 4.0 6.0 0.01 0.01 0.00 97 916.0
20260505015237 59 44 5.0 6.0 0.01 0.01 0.00 97 916.0
20260505014740 59 64 1.0 6.0 0.00 0.00 0.00 97 916.0
20260505014738 59 66 1.0 6.0 0.00 0.00 0.00 97 916.0
20260505014237 59 52 4.0 7.0 0.01 0.01 0.00 97 916.0
20260505014138 59 41 4.0 7.0 0.01 0.01 0.00 97 916.0
20260505013538 59 90 5.0 7.0 0.01 0.01 0.00 97 916.0
20260505012938 59 57 5.0 6.0 0.00 0.00 0.00 97 916.0
20260505012338 59 53 5.0 10.0 0.01 0.01 0.00 97 916.0
20260505012237 59 67 5.0 10.0 0.01 0.01 0.00 97 916.0
20260505011739 59 76 8.0 10.0 0.00 0.00 0.00 97 916.0
20260505011737 59 77 8.0 10.0 0.00 0.00 0.00 97 916.0
20260505011237 59 78 3.0 9.0 0.00 0.00 0.00 97 916.0
20260505010737 59 70 9.0 12.0 0.00 0.00 0.00 97 916.0
20260505010539 59 25 0.0 0.0 0.00 0.00 0.00 97 915.9
20260505010237 59 91 0.0 8.0 0.00 0.00 0.00 97 915.9
20260505005938 59 69 1.0 9.0 0.00 0.00 0.00 97 915.8
20260505005737 59 79 8.0 11.0 0.01 0.01 0.00 97 915.7
20260505005338 59 85 9.0 11.0 0.00 0.00 0.00 97 915.8
20260505005237 59 80 8.0 11.0 0.00 0.00 0.00 97 915.7
20260505004738 59 57 8.0 11.0 0.01 0.01 0.00 97 915.7
20260505004736 59 58 8.0 11.0 0.01 0.01 0.00 97 915.7
20260505004237 59 73 9.0 11.0 0.01 0.01 0.00 97 915.7
20260505004138 59 85 4.0 11.0 0.00 0.00 0.00 97 915.6
20260505003736 59 59 9.0 14.0 0.01 0.01 0.00 97 915.6
20260505003538 59 75 10.0 12.0 0.01 0.01 0.00 97 915.6
20260505003237 59 62 6.0 12.0 0.00 0.00 0.00 97 915.5
20260505002938 59 58 0.0 10.0 0.00 0.00 0.00 97 915.4
20260505002736 59 71 9.0 11.0 0.01 0.01 0.00 97 915.5
20260505002338 59 87 9.0 12.0 0.03 0.03 0.00 97 915.4
20260505002236 59 70 9.0 12.0 0.03 0.03 0.00 97 915.4
20260505001738 59 79 8.0 12.0 0.02 0.02 0.00 97 915.4
20260505001736 59 72 8.0 12.0 0.02 0.02 0.00 97 915.4
20260505001236 59 66 5.0 8.0 0.00 0.00 0.00 97 915.4
20260505001138 59 77 1.0 8.0 0.00 0.00 0.00 97 915.4
20260505000736 59 60 8.0 10.0 0.00 0.00 0.00 97 915.3
20260505000538 59 83 8.0 10.0 0.00 0.00 0.00 97 915.3
20260504235938 59 66 6.0 8.0 0.00 0.00 0.00 97 915.3
20260504235736 59 79 6.0 8.0 0.00 0.00 0.00 97 915.4
20260504235337 59 60 0.0 6.0 0.00 0.00 0.00 97 915.3
20260504235237 59 63 7.0 11.0 0.00 0.00 0.00 97 915.3
20260504234738 59 75 8.0 10.0 0.00 0.00 0.00 97 915.1
20260504234736 59 72 8.0 10.0 0.00 0.00 0.00 97 915.1
20260504234237 59 63 4.0 11.0 0.00 0.00 0.00 97 915.1
20260504233736 59 80 8.0 12.0 0.00 0.00 0.00 97 915.1
20260504233537 59 50 9.0 12.0 0.00 0.00 0.00 97 915.1
20260504233236 59 75 10.0 12.0 0.00 0.00 0.00 97 915.1
20260504232937 59 58 8.0 12.0 0.00 0.00 0.00 97 915.0
20260504232736 59 54 8.0 12.0 0.00 0.00 0.00 97 915.0
20260504232337 59 46 5.0 11.0 0.00 0.00 0.00 97 915.0
20260504232236 59 66 0.0 10.0 0.00 0.00 0.00 97 915.0
20260504231738 59 85 10.0 11.0 0.01 0.01 0.00 97 914.9
20260504231736 59 66 10.0 11.0 0.01 0.01 0.00 97 914.9
20260504231236 59 72 8.0 11.0 0.01 0.01 0.00 97 914.9
20260504231137 59 69 8.0 12.0 0.01 0.01 0.00 97 914.9
20260504230736 59 58 9.0 12.0 0.01 0.01 0.00 97 915.0
20260504230537 59 64 8.0 12.0 0.00 0.00 0.00 97 915.0
20260504230236 59 67 4.0 12.0 0.00 0.00 0.00 97 915.0
20260504225937 59 53 8.0 11.0 0.00 0.00 0.00 97 914.9
20260504225736 59 78 8.0 11.0 0.00 0.00 0.00 97 914.9
20260504225337 59 87 8.0 11.0 0.00 0.00 0.00 97 915.0
20260504225237 59 58 7.0 9.0 0.00 0.00 0.00 97 915.0
20260504224737 59 71 7.0 9.0 0.00 0.00 0.00 97 915.0
20260504224236 58 68 7.0 9.0 0.00 0.00 0.00 97 915.0
20260504224137 58 70 7.0 9.0 0.00 0.00 0.00 97 915.0
20260504223736 58 76 4.0 9.0 0.00 0.00 0.00 97 914.9
20260504223537 58 66 9.0 11.0 0.01 0.01 0.00 97 914.9
20260504223236 58 74 9.0 11.0 0.01 0.01 0.00 97 914.8
20260504222937 58 77 9.0 11.0 0.00 0.00 0.00 97 914.8
20260504222736 58 87 8.0 11.0 0.00 0.00 0.00 97 914.7
20260504222337 58 69 6.0 11.0 0.00 0.00 0.00 97 914.7
20260504222236 58 76 1.0 11.0 0.00 0.00 0.00 97 914.7
20260504221737 58 74 10.0 14.0 0.05 0.05 0.00 97 914.7
20260504221735 58 79 10.0 14.0 0.05 0.05 0.00 97 914.7
20260504221235 58 72 10.0 17.0 0.03 0.03 0.00 97 914.7
20260504220735 58 70 13.0 17.0 0.02 0.02 0.00 97 914.6
20260504220537 58 54 13.0 17.0 0.02 0.02 0.00 97 914.5
20260504220235 58 83 12.0 16.0 0.01 0.01 0.00 97 914.6
20260504215937 58 77 10.0 16.0 0.01 0.01 0.00 97 914.7
20260504215735 58 45 10.0 16.0 0.01 0.01 0.00 97 914.7
20260504215336 58 43 10.0 14.0 0.00 0.00 0.00 97 914.7
20260504215236 58 77 9.0 13.0 0.00 0.00 0.00 97 914.8
20260504214735 58 65 10.0 12.0 0.00 0.00 0.00 97 914.8
20260504214235 58 52 9.0 16.0 0.00 0.00 0.00 97 914.8
20260504214136 58 68 9.0 16.0 0.00 0.00 0.00 97 914.7
20260504213735 58 76 10.0 16.0 0.00 0.00 0.00 97 914.6
20260504213536 58 73 11.0 16.0 0.00 0.00 0.00 97 914.6
20260504213235 58 74 12.0 15.0 0.00 0.00 0.00 97 914.5
20260504212936 58 85 12.0 15.0 0.00 0.00 0.00 97 914.4
20260504212735 58 79 4.0 15.0 0.00 0.00 0.00 97 914.4
20260504212336 58 81 14.0 20.0 0.00 0.00 0.00 97 914.3
20260504212236 58 70 15.0 20.0 0.00 0.00 0.00 97 914.3
20260504211737 58 85 14.0 19.0 0.00 0.00 0.00 97 914.2
20260504211735 58 43 14.0 19.0 0.00 0.00 0.00 97 914.3
20260504211235 58 92 14.0 19.0 0.00 0.00 0.00 97 914.2
20260504211136 58 93 13.0 19.0 0.00 0.00 0.00 97 914.3
20260504210735 58 71 14.0 19.0 0.00 0.00 0.00 97 914.3
20260504210235 58 63 12.0 15.0 0.00 0.00 0.00 97 914.3
20260504205936 59 75 12.0 15.0 0.00 0.00 0.00 97 914.4
20260504205735 59 85 12.0 15.0 0.00 0.00 0.00 97 914.4
20260504205336 59 67 10.0 15.0 0.00 0.00 0.00 97 914.5
20260504205235 59 51 10.0 15.0 0.00 0.00 0.00 97 914.5
20260504204736 59 79 10.0 15.0 0.00 0.00 0.00 97 914.5
20260504204235 59 64 10.0 15.0 0.00 0.00 0.00 97 914.5
20260504204136 59 75 11.0 15.0 0.00 0.00 0.00 97 914.5
20260504203734 59 81 12.0 17.0 0.00 0.00 0.00 97 914.5
20260504203536 59 42 12.0 17.0 0.00 0.00 0.00 97 914.4
20260504203234 59 52 11.0 17.0 0.00 0.00 0.00 97 914.5
20260504202936 59 60 13.0 18.0 0.00 0.00 0.00 97 914.5
20260504202734 59 68 13.0 18.0 0.00 0.00 0.00 97 914.5
20260504202336 59 63 13.0 18.0 0.00 0.00 0.00 97 914.5
20260504202234 59 81 14.0 18.0 0.00 0.00 0.00 97 914.5
20260504201736 59 68 15.0 20.0 0.00 0.00 0.00 97 914.4
20260504201734 59 78 15.0 20.0 0.00 0.00 0.00 97 914.3
20260504201235 59 76 16.0 21.0 0.00 0.00 0.00 97 914.3
20260504201136 59 72 14.0 21.0 0.00 0.00 0.00 97 914.2
20260504200734 59 71 17.0 21.0 0.00 0.00 0.00 97 914.2
20260504200536 59 84 15.0 23.0 0.00 0.00 0.00 97 914.1
20260504200234 59 75 16.0 23.0 0.00 0.00 0.00 97 914.1
20260504195936 59 73 16.0 23.0 0.00 0.00 0.00 97 914.1
20260504195734 59 72 17.0 23.0 0.00 0.00 0.00 97 914.0
20260504195336 59 83 14.0 20.0 0.00 0.00 0.00 97 914.0
20260504195234 59 70 14.0 18.0 0.00 0.00 0.00 97 914.2
20260504194736 59 38 14.0 18.0 0.00 0.00 0.00 97 914.2
20260504194734 59 55 14.0 18.0 0.00 0.00 0.00 97 914.2
20260504194234 59 78 13.0 18.0 0.00 0.00 0.00 97 914.3
20260504194136 59 78 14.0 18.0 0.00 0.00 0.00 97 914.3
20260504193734 59 73 15.0 19.0 0.00 0.00 0.00 97 914.3
20260504193538 59 65 15.0 19.0 0.00 0.00 0.00 97 914.2
20260504193234 59 55 14.0 19.0 0.00 0.00 0.00 97 914.3
20260504192935 59 66 13.0 20.0 0.00 0.00 0.00 97 914.3
20260504192734 59 45 13.0 20.0 0.00 0.00 0.00 97 914.4
20260504192335 59 55 15.0 20.0 0.00 0.00 0.00 97 914.3
20260504192234 59 61 16.0 20.0 0.00 0.00 0.00 97 914.3
20260504191736 59 59 15.0 20.0 0.00 0.00 0.00 97 914.2
20260504191734 59 63 15.0 20.0 0.00 0.00 0.00 97 914.2
20260504191234 59 73 16.0 18.0 0.00 0.00 0.00 97 914.3
20260504191135 59 45 16.0 18.0 0.00 0.00 0.00 97 914.3
20260504190734 59 68 15.0 21.0 0.00 0.00 0.00 97 914.3
20260504190535 59 86 17.0 21.0 0.00 0.00 0.00 97 914.2
20260504185936 59 62 18.0 23.0 0.00 0.00 0.00 97 914.3
20260504185335 60 76 18.0 24.0 0.00 0.00 0.00 97 914.2
20260504185234 60 75 17.0 24.0 0.00 0.00 0.00 97 914.3
20260504184736 60 80 16.0 24.0 0.00 0.00 0.00 97 914.4
20260504184734 60 79 16.0 24.0 0.00 0.00 0.00 97 914.4
20260504184234 60 71 18.0 24.0 0.00 0.00 0.00 97 914.4
20260504184135 60 69 18.0 23.0 0.00 0.00 0.00 97 914.4
20260504183734 60 73 17.0 24.0 0.00 0.00 0.00 97 914.3
20260504183535 60 55 19.0 24.0 0.00 0.00 0.00 97 914.4
20260504183233 60 67 18.0 24.0 0.00 0.00 0.00 97 914.4
20260504182935 60 90 20.0 24.0 0.00 0.00 0.00 97 914.5
20260504182733 60 80 19.0 25.0 0.00 0.00 0.00 97 914.6
20260504182335 60 83 20.0 25.0 0.00 0.00 0.00 97 914.3
20260504182233 60 83 19.0 26.0 0.00 0.00 0.00 97 914.4
20260504181736 60 82 21.0 26.0 0.00 0.00 0.00 97 914.2
20260504181734 60 74 21.0 26.0 0.00 0.00 0.00 97 914.2
20260504181233 60 72 21.0 26.0 0.00 0.00 0.00 97 914.6
20260504181135 60 77 22.0 26.0 0.00 0.00 0.00 97 914.4
20260504180734 60 85 20.0 26.0 0.00 0.00 0.00 97 914.8
20260504180535 60 86 20.0 25.0 0.00 0.00 0.00 97 914.7
20260504180233 60 79 18.0 25.0 0.00 0.00 0.00 97 914.8
20260504175935 60 67 19.0 25.0 0.00 0.00 0.00 97 915.1
20260504175733 60 73 18.0 24.0 0.00 0.00 0.00 97 915.0
20260504175335 60 89 17.0 21.0 0.00 0.00 0.00 97 915.0
20260504175233 60 71 17.0 21.0 0.00 0.00 0.00 97 915.2
20260504174735 60 78 15.0 22.0 0.00 0.00 0.00 97 915.3
20260504174733 60 77 15.0 22.0 0.00 0.00 0.00 97 915.4
20260504174233 60 71 15.0 22.0 0.00 0.00 0.00 97 915.4
20260504174135 60 78 16.0 23.0 0.00 0.00 0.00 97 915.4
20260504173733 60 65 14.0 28.0 0.00 0.00 0.00 97 915.4
20260504173534 60 62 15.0 28.0 0.00 0.00 0.00 97 915.3
20260504173233 60 70 18.0 28.0 0.00 0.00 0.00 97 915.4
20260504172935 60 66 18.0 24.0 0.00 0.00 0.00 97 915.1
20260504172733 60 65 17.0 24.0 0.00 0.00 0.00 97 915.2
20260504172334 60 61 19.0 24.0 0.00 0.00 0.00 97 915.3
20260504171735 60 86 18.0 21.0 0.00 0.00 0.00 97 915.4
20260504171134 60 77 18.0 24.0 0.00 0.00 0.00 97 915.5
20260504170534 60 63 17.0 23.0 0.00 0.00 0.00 97 915.6
20260504160232 60 81 21.0 27.0 0.00 0.00 0.00 97 915.7
20260504151133 61 60 21.0 26.0 0.00 0.00 0.00 97 916.2
20260504150732 61 96 18.0 23.0 0.00 0.00 0.00 97 916.1
20260504150533 61 75 5.0 23.0 0.00 0.00 0.00 97 916.2
20260504150232 61 67 15.0 27.0 0.00 0.00 0.00 97 916.1
20260504141133 62 68 23.0 29.0 0.00 0.00 0.00 97 915.8
20260504140732 62 73 22.0 32.0 0.00 0.00 0.00 97 915.9
20260504140533 62 46 22.0 32.0 0.00 0.00 0.00 97 915.8
20260504140232 62 77 20.0 28.0 0.00 0.00 0.00 97 915.6
20260504130731 62 67 21.0 28.0 0.00 0.00 0.00 97 916.0
20260504130532 62 65 18.0 22.0 0.00 0.00 0.00 97 916.0
20260504130231 62 85 4.0 19.0 0.00 0.00 0.00 97 916.0
20260504120231 62 95 2.0 20.0 0.00 0.00 0.00 97 915.0
20260504100531 63 84 17.0 21.0 0.00 0.00 0.00 97 915.2
20260504100230 63 71 15.0 22.0 0.00 0.00 0.00 97 915.3